This is the latest recevied weather packets stored in our database for station/object N6OIM. If no packets are shown the sender has not sent any weather packets the latest 10 day(s).
| Time | Temp. | Humidity | Pressure | Rain* | Wind** | Luminosity | Snow |
|---|---|---|---|---|---|---|---|
| 1777308202 | 15° C | 71% | 1015.2 hPa | 0 mm | - | - | - |
| 1777307002 | 13.89° C | 74% | 1015.2 hPa | 0 mm | - | - | - |
| 1777306712 | 13.33° C | 77% | 1015.2 hPa | 0 mm | - | - | - |
| 1777306400 | 13.33° C | 79% | 1015.2 hPa | 0 mm | - | - | - |
| 1777306112 | 12.78° C | 80% | 1015.2 hPa | 0 mm | - | - | - |
| 1777305804 | 12.78° C | 81% | 1015.1 hPa | 0 mm | - | - | - |
| 1777305514 | 12.22° C | 82% | 1015.1 hPa | 0 mm | - | - | - |
| 1777305203 | 12.22° C | 83% | 1015.2 hPa | 0 mm | - | - | - |
| 1777304897 | 11.67° C | 84% | 1015.1 hPa | 0 mm | - | - | - |
| 1777304314 | 11.11° C | 85% | 1015.1 hPa | 0 mm | - | - | - |
| 1777304001 | 11.11° C | 86% | 1015.1 hPa | 0 mm | - | - | - |
| 1777303709 | 11.11° C | 87% | 1015.1 hPa | 0 mm | - | - | - |
| 1777302814 | 10.56° C | 88% | 1015.1 hPa | 0 mm | - | - | - |
| 1777301611 | 10° C | 88% | 1015.2 hPa | 0 mm | - | - | - |
| 1777300699 | 9.44° C | 88% | 1015.1 hPa | 0 mm | - | - | - |
| 1777300406 | 9.44° C | 88% | 1015 hPa | 0 mm | - | - | - |
| 1777300098 | 9.44° C | 87% | 1014.8 hPa | 0 mm | - | - | - |
| 1777299806 | 9.44° C | 87% | 1014.9 hPa | 0 mm | - | - | - |
| 1777299499 | 8.89° C | 87% | 1014.8 hPa | 0 mm | - | - | - |
| 1777299207 | 8.89° C | 87% | 1014.7 hPa | 0 mm | - | - | - |
| 1777298608 | 8.89° C | 86% | 1014.5 hPa | 0 mm | - | - | - |
| 1777298004 | 8.89° C | 86% | 1014.4 hPa | 0 mm | - | - | - |
| 1777296805 | 8.89° C | 85% | 1014 hPa | 0 mm | - | - | - |
| 1777295597 | 8.89° C | 84% | 1014 hPa | 0 mm | - | - | - |
| 1777295306 | 8.89° C | 84% | 1013.9 hPa | 0 mm | - | - | - |
* Rain latest hour (hover to see other rain measurements)
** Current wind speed in m/s (hover to see current wind gust speed)